Location: Unspecified
(51.0459°N, 0.0000°E)
Time: 12:01:08
(UTC+00:00)

ISS - Pass Details

Date: 27 May 2019
Orbit: 408 x 418 km, 51.6° (Epoch: 25 June)

Event Time Altitude Azimuth Distance (km) Brightness Sun altitude
Rises 22:53:28 0° 285° (WNW) 2,363 0.5 -16.2°
Reaches altitude 10° 22:55:41 10° 275° (W) 1,499 -0.7 -16.3°
Enters shadow 22:58:37 32° 215° (SW) 744 -2.9 -16.4°
